Regional Weather Roundup
Issued by NWS

Home | Current Version | Previous Version | Text Only | Print | Product List | Glossary Off
Versions: 1 2 3 4 5 6 7 8 9 10 11 12 13 14 15 16 17 18 19 20 21 22 23 24 25 26 27 28 29 30 31 32 33 34 35 36 37 38 39 40 41 42 43 44 45 46 47 48 49 50

000
ASUS45 KTFX 020019
RWRMT
MONTANA HOURLY WEATHER ROUNDUP
NATIONAL WEATHER SERVICE GREAT FALLS MT
619 PM MDT WED OCT 1 2014

NOTE: "FAIR" INDICATES FEW OR NO CLOUDS BELOW 12000 FEET WITH NO
SIGNIFICANT WEATHER AND/OR OBSTRUCTIONS TO VISIBILITY.

* THESE STATIONS ARE NOT UNDER NWS QUALITY CONTROL. THEY DO NOT
   REPORT WEATHER SUCH AS PRECIPITATION OR FOG.

MTZ001>007-043-020100-
WEST OF THE DIVIDE
CITY           SKY/WX    TMP DP  RH WIND       PRES   REMARKS
KALISPELL      CLOUDY    54  36  51 SW10      30.01S
MISSOULA       CLOUDY    54  34  47 W9        30.11R
BUTTE          MOCLDY    48  25  41 W12G22    30.06R
MULLAN PASS    CLOUDY    37  36  96 SW8       30.09S WCI  31
* ESSEX        N/A       49  40  71 W1         N/A
* LINCOLN      N/A       50  28  43 SW4G15     N/A
* LOOKOUT PASS N/A       45  37  74 SE7G12     N/A
* POLSON       N/A       54  28  37 SW3G8      N/A
* RONAN APT    MOCLDY    54  36  51 SW9        N/A
* SEELEY LAKE  N/A       50  29  44 SW8G19     N/A
* THOMP F APT  PTCLDY    49  23  36 NW5G18     N/A
* YAAK HILL    N/A       63  32  31 S3G9       N/A
$$

MTZ008-052>055-020100-
SOUTHWEST MONTANA
CITY           SKY/WX    TMP DP  RH WIND       PRES   REMARKS
BOZEMAN        CLOUDY    55  28  35 SW12      30.01S
DILLON         CLEAR     52  25  35 W17       30.05R
W YELLOWSTONE  CLOUDY    41  28  60 W3        30.08R
* THREE FORKS  PTCLDY    57  52  83 W10G20     N/A
* BOULDER HILL N/A       48  19  32 S12G17     N/A
* MONIDA PASS  N/A       43  23  45 NW12G19    N/A
* RAYNOLDS PAS N/A       43  42  96 NW4G9      N/A
* WHITEHALL    N/A       59  26  28 W10G18     N/A
* WISE RIVER   N/A       48  25  41 W18G26     N/A
$$

MTZ009>010-012-014-046-048-049-054-020100-
EAST SLOPES AND CENTRAL MONTANA
CITY           SKY/WX    TMP DP  RH WIND       PRES   REMARKS
CUT BANK       CLEAR     54  30  40 W28G39    29.86F
GREAT FALLS    PTCLDY    54  30  40 SW22      29.89S
HELENA         PTCLDY    57  27  32 W16G24    30.00R
MALMSTROM AFB  MOCLDY    57  30  36 SW16G29   29.91S
* CONRAD       CLEAR     57  34  42 SW16G22    N/A
* DEARBORN     N/A       57  28  33 S19G34     N/A
* EAST GLACIER N/A       46  29  52 W25G35     N/A
* MONARCH      N/A       47  20  34 W19G28     N/A
* PENDROY      N/A       52  22  31 W20G34     N/A
* ROGERS PASS  N/A       44  27  51 E17G35     N/A
* SAINT MARY   N/A       48  29  48 S11G30     N/A
* SWEET GRASS  N/A       56  28  34 SW18G25    N/A
$$

MTZ011-013-016-021-035-040-045-047-050-051-020100-
NORTH CENTRAL MONTANA
CITY           SKY/WX    TMP DP  RH WIND       PRES   REMARKS
HAVRE          PTCLDY    59  37  44 S10       29.82S
LEWISTOWN      LGT RAIN  52  37  57 SW6       29.93S
* CHINOOK      CLEAR     61  37  41 S3        29.83S
* FORT BENTON  PTCLDY    61  30  31 SW16      29.87R
* CHESTER      N/A       59  26  28 W13G19     N/A
* DENTON       N/A       58  29  33 SW14G23    N/A
* JUDITH GAP   N/A       53  27  37 SW17G22    N/A
* LOMA         N/A       61  30  31 SW17G25    N/A
$$

MTZ017>020-022>027-061-062-020100-
NORTHEAST MONTANA
CITY           SKY/WX    TMP DP  RH WIND       PRES   REMARKS
GLASGOW        PTCLDY    59  34  39 NW13      29.84R
GLENDIVE       CLOUDY    54  46  74 W5        29.89R
JORDAN         PTCLDY    57  36  46 NW14      29.88S
SIDNEY         PTCLDY    54  43  67 CALM      29.85R
WOLF POINT     MOCLDY    57  39  51 W15       29.83R
* BEAVER HILL  N/A       53  44  72 W9         N/A
* CIRCLE       N/A       55  47  75 N/A        N/A
* LINDSAY DVD  N/A       52  42  69 W16G22     N/A
* NAVAJO       N/A       54  40  59 NW11G16    N/A
$$

MTZ028>042-056>058-020100-
SOUTHCENTRAL AND SOUTHEAST MONTANA
CITY           SKY/WX    TMP DP  RH WIND       PRES   REMARKS
BAKER          CLOUDY    52  43  72 W9        29.89R
BILLINGS       MOCLDY    54  34  47 SW9       29.96R
LIVINGSTON     PTCLDY    54  32  43 SW17G22   29.98F
MILES CITY     CLEAR     57  30  36 NW17      29.89R
* LAUREL APT   PTCLDY    52  37  57 N6         N/A
* ROUNDUP APT  CLEAR     55  34  45 SW5        N/A
* ALZADA       N/A       54  37  53 NW9        N/A
* HYSHAM       N/A       55  24  30 W3G8       N/A
* LAME DEER    N/A       52  28  40 NW7G14     N/A
* REED POINT   N/A       56  29  36 W19G25     N/A
* ROSCOE HILL  N/A       51  18  27 NW7G12     N/A
$$

REGIONAL REPORTS...DAKOTAS
CITY           SKY/WX    TMP DP  RH WIND       PRES   REMARKS
WILLISTON      MOCLDY    55  45  69 NW14G22   29.81R
DICKINSON      CLOUDY    54  45  72 NW16      29.83R
BEACH          N/A       52  46  80 W13       29.87R
CROSBY         CLOUDY    54  48  80 W8        29.77R
TIOGA          CLOUDY    52  50  93 W13       29.81R
WATFORD CITY   MOCLDY    54  45  72 W9        29.80R
BISMARCK       CLOUDY    59  48  67 W8        29.80R
GRAND FORKS    MOCLDY    63  54  73 SW7       29.66R
FARGO          CLOUDY    64  50  61 W10       29.72R
BUFFALO SD     CLOUDY    54  43  67 W8        29.83R
RAPID CITY     CLOUDY    54  43  67 N10       29.92R
$$

REGIONAL REPORTS...WYOMING/IDAHO/WASHINGTON
CITY           SKY/WX    TMP DP  RH WIND       PRES   REMARKS
GILLETTE       CLOUDY    50  37  61 NW10      29.96R
SHERIDAN       MOCLDY    52  36  55 NW14      29.97R
CODY           CLOUDY    46  37  71 N9        30.01R
YELLOWSTONE LA PTCLDY    36  30  79 CALM      30.11R
SALMON         CLEAR     55  27  34 N7        30.08R
MULLAN PASS    CLOUDY    37  36  96 SW8       30.09S WCI  31
SAND POINT     MOCLDY    57  37  47 SW6       30.02F
SPOKANE        MOCLDY    61  32  34 SW16      30.05F
$$

REGIONAL REPORTS...ALBERTA
CITY           SKY/WX    TMP DP  RH WIND       PRES   REMARKS
CALGARY        FAIR      59  19  21 W17G30    29.74R
LETHBRIDGE     PTCLDY    55  32  42 W28G36    29.79S
MEDICINE HAT   PTCLDY    59  34  39 W12       29.76F
EDMONTON       MOCLDY    46  30  54 NW17G26   29.79F
WATERTON GATE  N/A       50  28  43 SW23G36    N/A
CARDSTON       N/A       52  30  43 W17G26     N/A
MILK RIVER     N/A       55  28  35 W18G24     N/A
$$

REGIONAL REPORTS...SASKATCHEWAN
CITY           SKY/WX    TMP DP  RH WIND       PRES   REMARKS
SWIFT CURRENT  MOCLDY    55  32  42 NW13      29.78R
MOOSE JAW      FAIR      57  41  55 W9        29.76R
REGINA         PTCLDY    55  39  55 NW16      29.73R
VAL MARIE      N/A       55  36  49 N7         N/A
ASSINIBOIA     N/A       55  34  45 NW12       N/A
CORONACH       N/A       54  39  57 W9         N/A

$$




USA.gov is the U.S. government's official web portal to all federal, state and local government web resources and services.